• In Latvia
  • List of Countries
  • For 7 days
  • Water Temperature
  • Satellite Maps
  • Weather Map
  • Weather Widgets
  • user-avatar
    Login

    Hourly Weather Bielasy

    Today, 22 October, Monday

    Time Temperature Precipitation Wind Pressure Humidity
    00:00 +3°C° 0 mm 1 mps 713 mmHg 89%
    01:00 +2°C° 0 mm 0 mps 713 mmHg 89%
    02:00 +3°C° 0 mm 1 mps 713 mmHg 89%
    03:00 +3°C° 0 mm 1 mps 712 mmHg 89%
    04:00 +3°C° 0 mm 1 mps 712 mmHg 89%
    05:00 +2°C° 0 mm 0 mps 712 mmHg 88%
    06:00 +2°C° 0 mm 0 mps 712 mmHg 86%
    07:00 +2°C° 0 mm 0 mps 712 mmHg 85%
    08:00 +5°C° 0 mm 0 mps 712 mmHg 77%
    09:00 +7°C° 0 mm 0 mps 713 mmHg 68%
    10:00 +9°C° 0 mm 0 mps 713 mmHg 59%
    11:00 +10°C° 0 mm 0 mps 713 mmHg 57%
    12:00 +12°C° 0 mm 1 mps 712 mmHg 54%
    13:00 +13°C° 0 mm 1 mps 712 mmHg 51%
    14:00 +12°C° 0 mm 1 mps 712 mmHg 56%
    15:00 +11°C° 0 mm 1 mps 711 mmHg 60%
    16:00 +10°C° 0 mm 1 mps 711 mmHg 64%
    17:00 +9°C° 0 mm 1 mps 711 mmHg 69%
    18:00 +7°C° 0 mm 1 mps 711 mmHg 74%
    19:00 +6°C° 0 mm 1 mps 711 mmHg 79%
    20:00 +6°C° 0.1 mm 1 mps 711 mmHg 79%
    21:00 +6°C° 0.1 mm 2 mps 711 mmHg 79%
    22:00 +6°C° 0.1 mm 2 mps 711 mmHg 80%
    23:00 +6°C° 0.2 mm 2 mps 711 mmHg 81%

    Tomorrow, 23 October, Tuesday

    Time Temperature Precipitation Wind Pressure Humidity
    00:00 +6°C° 0.2 mm 2 mps 711 mmHg 83%
    01:00 +6°C° 0.2 mm 2 mps 711 mmHg 85%
    02:00 +5°C° 0.1 mm 2 mps 711 mmHg 87%
    03:00 +5°C° 0.1 mm 2 mps 711 mmHg 89%
    04:00 +4°C° 0.1 mm 2 mps 710 mmHg 91%
    05:00 +4°C° 0 mm 2 mps 710 mmHg 90%
    06:00 +4°C° 0 mm 2 mps 710 mmHg 89%
    07:00 +4°C° 0 mm 2 mps 710 mmHg 88%
    08:00 +3°C° 0 mm 3 mps 710 mmHg 81%
    09:00 +4°C° 0 mm 3 mps 709 mmHg 74%
    10:00 +5°C° 0 mm 4 mps 709 mmHg 67%
    11:00 +5°C° 0.1 mm 4 mps 708 mmHg 66%
    12:00 +5°C° 0.1 mm 5 mps 707 mmHg 66%
    13:00 +5°C° 0.1 mm 5 mps 706 mmHg 65%
    14:00 +4°C° 0.2 mm 6 mps 705 mmHg 68%
    15:00 +4°C° 0.2 mm 6 mps 705 mmHg 70%
    16:00 +4°C° 0.2 mm 7 mps 704 mmHg 73%
    17:00 +3°C° 0.8 mm 7 mps 703 mmHg 76%
    18:00 +3°C° 0.8 mm 7 mps 702 mmHg 79%
    19:00 +3°C° 0.8 mm 7 mps 702 mmHg 82%
    20:00 +4°C° 0.9 mm 7 mps 701 mmHg 83%
    21:00 +4°C° 0.9 mm 7 mps 700 mmHg 84%
    22:00 +5°C° 0.9 mm 7 mps 700 mmHg 84%
    23:00 +5°C° 1.3 mm 8 mps 699 mmHg 85%

    Day after tomorrow, 24 October, Wednesday

    Time Temperature Precipitation Wind Pressure Humidity
    00:00 +6°C° 1.3 mm 8 mps 698 mmHg 86%
    01:00 +6°C° 1.3 mm 8 mps 697 mmHg 87%
    02:00 +6°C° 1.4 mm 8 mps 697 mmHg 86%
    03:00 +6°C° 1.4 mm 9 mps 696 mmHg 86%
    04:00 +7°C° 1.4 mm 10 mps 695 mmHg 85%
    05:00 +6°C° 1.9 mm 9 mps 695 mmHg 82%
    06:00 +5°C° 1.9 mm 9 mps 696 mmHg 79%
    07:00 +3°C° 1.9 mm 9 mps 696 mmHg 76%
    08:00 +2°C° 0.3 mm 9 mps 696 mmHg 73%
    09:00 +2°C° 0.3 mm 9 mps 697 mmHg 70%
    10:00 +1°C° 0.3 mm 9 mps 698 mmHg 67%
    11:00 +1°C° 0.2 mm 9 mps 698 mmHg 64%
    12:00 +1°C° 0.2 mm 9 mps 698 mmHg 62%
    13:00 +2°C° 0.2 mm 9 mps 699 mmHg 60%
    14:00 +1°C° 0.1 mm 8 mps 699 mmHg 59%
    15:00 +2°C° 0.1 mm 7 mps 700 mmHg 58%
    16:00 +2°C° 0.1 mm 7 mps 700 mmHg 57%
    17:00 +1°C° 0 mm 6 mps 701 mmHg 58%
    18:00 +1°C° 0 mm 6 mps 701 mmHg 58%
    19:00 +1°C° 0 mm 6 mps 702 mmHg 59%
    20:00 -1°C° 0 mm 6 mps 702 mmHg 61%
    21:00 -1°C° 0 mm 6 mps 703 mmHg 63%
    22:00 -1°C° 0 mm 5 mps 703 mmHg 65%
    23:00 -1°C° 0 mm 5 mps 704 mmHg 68%

    25 October, Thursday

    Time Temperature Precipitation Wind Pressure Humidity
    00:00 -1°C° 0 mm 5 mps 704 mmHg 72%
    01:00 -2°C° 0 mm 4 mps 704 mmHg 75%
    02:00 -2°C° 0 mm 4 mps 705 mmHg 77%
    03:00 -2°C° 0 mm 4 mps 705 mmHg 80%
    04:00 -2°C° 0 mm 4 mps 705 mmHg 82%
    05:00 -1°C° 0 mm 3 mps 706 mmHg 83%
    06:00 -1°C° 0 mm 3 mps 706 mmHg 83%
    07:00 -1°C° 0 mm 3 mps 706 mmHg 84%
    08:00 -1°C° 0 mm 4 mps 706 mmHg 78%
    09:00 +1°C° 0 mm 4 mps 706 mmHg 72%
    10:00 +2°C° 0 mm 5 mps 706 mmHg 66%
    11:00 +3°C° 0 mm 5 mps 706 mmHg 65%
    12:00 +3°C° 0 mm 5 mps 706 mmHg 65%
    13:00 +5°C° 0 mm 5 mps 705 mmHg 65%
    14:00 +5°C° 0.1 mm 4 mps 705 mmHg 70%
    15:00 +5°C° 0.1 mm 4 mps 705 mmHg 75%
    16:00 +4°C° 0.1 mm 4 mps 705 mmHg 79%
    17:00 +5°C° 0 mm 4 mps 705 mmHg 81%
    18:00 +5°C° 0 mm 4 mps 705 mmHg 83%
    19:00 +5°C° 0 mm 4 mps 705 mmHg 84%
    20:00 +5°C° 0 mm 3 mps 705 mmHg 87%
    21:00 +5°C° 0 mm 3 mps 705 mmHg 89%
    22:00 +5°C° 0 mm 3 mps 705 mmHg 91%
    23:00 +5°C° 0.1 mm 3 mps 704 mmHg 91%

    26 October, Friday

    Time Temperature Precipitation Wind Pressure Humidity
    00:00 +5°C° 0.1 mm 3 mps 704 mmHg 91%
    01:00 +5°C° 0.1 mm 3 mps 704 mmHg 91%
    02:00 +5°C° 0 mm 3 mps 704 mmHg 92%
    03:00 +4°C° 0 mm 3 mps 704 mmHg 92%
    04:00 +5°C° 0 mm 2 mps 704 mmHg 92%
    05:00 +5°C° 0 mm 2 mps 704 mmHg 93%
    06:00 +5°C° 0 mm 2 mps 704 mmHg 93%
    07:00 +5°C° 0 mm 2 mps 703 mmHg 93%
    08:00 +6°C° 0 mm 2 mps 704 mmHg 87%
    09:00 +7°C° 0 mm 3 mps 704 mmHg 81%
    10:00 +9°C° 0 mm 3 mps 704 mmHg 75%
    11:00 +10°C° 0 mm 3 mps 703 mmHg 71%
    12:00 +11°C° 0 mm 3 mps 703 mmHg 67%
    13:00 +12°C° 0 mm 3 mps 703 mmHg 63%
    14:00 +11°C° 0 mm 3 mps 702 mmHg 67%
    15:00 +10°C° 0 mm 2 mps 702 mmHg 72%
    16:00 +9°C° 0 mm 2 mps 701 mmHg 76%
    17:00 +8°C° 0 mm 2 mps 701 mmHg 80%
    18:00 +7°C° 0 mm 2 mps 701 mmHg 84%
    19:00 +6°C° 0 mm 2 mps 701 mmHg 88%
    20:00 +6°C° 0 mm 2 mps 700 mmHg 88%
    21:00 +6°C° 0 mm 2 mps 700 mmHg 89%
    22:00 +6°C° 0 mm 2 mps 700 mmHg 90%
    23:00 +6°C° 0 mm 2 mps 700 mmHg 90%

    27 October, Saturday

    Time Temperature Precipitation Wind Pressure Humidity
    00:00 +6°C° 0 mm 2 mps 700 mmHg 91%
    01:00 +6°C° 0 mm 2 mps 700 mmHg 91%
    02:00 +6°C° 0 mm 2 mps 699 mmHg 92%
    03:00 +7°C° 0 mm 2 mps 699 mmHg 92%
    04:00 +7°C° 0 mm 2 mps 699 mmHg 93%
    05:00 +7°C° 0 mm 2 mps 699 mmHg 93%
    06:00 +7°C° 0 mm 2 mps 698 mmHg 93%
    07:00 +7°C° 0 mm 2 mps 698 mmHg 93%
    08:00 +8°C° 0 mm 2 mps 698 mmHg 88%
    09:00 +10°C° 0 mm 2 mps 698 mmHg 82%
    10:00 +13°C° 0 mm 2 mps 698 mmHg 77%
    11:00 +12°C° 0.1 mm 3 mps 697 mmHg 77%
    12:00 +13°C° 0.1 mm 3 mps 697 mmHg 77%
    13:00 +13°C° 0.1 mm 3 mps 696 mmHg 77%
    14:00 +13°C° 0.2 mm 3 mps 696 mmHg 79%
    15:00 +12°C° 0.2 mm 3 mps 695 mmHg 81%
    16:00 +12°C° 0.2 mm 3 mps 695 mmHg 83%
    17:00 +12°C° 0.1 mm 3 mps 694 mmHg 84%
    18:00 +11°C° 0.1 mm 3 mps 694 mmHg 85%
    19:00 +11°C° 0.1 mm 3 mps 694 mmHg 86%
    20:00 +11°C° 0.4 mm 3 mps 694 mmHg 87%
    21:00 +11°C° 0.4 mm 3 mps 694 mmHg 87%
    22:00 +11°C° 0.4 mm 4 mps 694 mmHg 88%
    23:00 +10°C° 1.1 mm 3 mps 694 mmHg 89%
    Show more